Change the Weather History Date:

Monday, November 25, 2013

  Actual Average Record
Temperature  
Mean Temperature 31 °F 49 °F  
Max Temperature 43 °F 60 °F 79 °F (1973)
Min Temperature 18 °F 38 °F 11 °F (1970)
Degree Days  
Heating Degree Days 34 16  
Month to date heating degree days 369 308  
Since 1 July heating degree days 528 497  
Cooling Degree Days 0 0  
Month to date cooling degree days 2 1  
Year to date cooling degree days 1552 1721  
Moisture  
Dew Point 9 °F    
Average Humidity 47    
Maximum Humidity 74    
Minimum Humidity 20    
Precipitation  
Precipitation 0.00 in 0.10 in 1.47 in (1957)
Month to date precipitation 1.45 2.60  
Year to date precipitation 43.24 39.75  
Snow  
Snow 0.00 in 0.00 in 1.30 in (1962)
Month to date snowfall T 0.1  
Since 1 July snowfall T 0.1  
Since 1 September snowfall T 0.1  
Snow Depth 0.00 in    
Sea Level Pressure  
Sea Level Pressure 30.51 in    
Wind  
Wind Speed 2 mph (SSE)    
Max Wind Speed 10 mph    
Max Gust Speed 16 mph    
Visibility 10 miles    
Events      
T = Trace of Precipitation, MM = Missing Value Source: NWS Daily Summary

Daily Weather History Graph

Daily Weather History Graph

Search for Another Location

Airport or City:

Trip Planner

Search our weather history database for the weather conditions in past years. The results will help you decide how hot, cold, wet, or windy it might be!

Date:

Astronomy

Nov. 25, 2013 Rise Set
Actual Time 7:01 AM EST 5:02 PM EST
Civil Twilight 6:33 AM EST 5:30 PM EST
Nautical Twilight 6:02 AM EST 6:01 PM EST
Astronomical Twilight 5:31 AM EST 6:32 PM EST
Moon No Moon Rise 12:25 PM EST (11/25)
Length of Visible Light 10h 56m
Length of Day
10h 01m
Waning Gibbous, 51% of the Moon is Illuminated
Nov 25
Waning Gibbous
Nov 25
Last Quarter
Dec 2
New
Dec 9
First Quarter
Dec 17
Full

Hourly Weather History & Observations

Time (EST) Temp. Windchill Dew Point Humidity Pressure Visibility Wind Dir Wind Speed Gust Speed Precip Events Conditions
12:51 AM 23.0 °F - 10.9 °F 60% 30.55 in 10.0 mi Calm Calm - N/A   Partly Cloudy
1:51 AM 23.0 °F - 10.9 °F 60% 30.55 in 10.0 mi Calm Calm - N/A   Partly Cloudy
2:51 AM 21.0 °F - 10.0 °F 63% 30.57 in 10.0 mi Calm Calm - N/A   Partly Cloudy
3:51 AM 19.9 °F - 10.0 °F 65% 30.57 in 10.0 mi Calm Calm - N/A   Partly Cloudy
4:51 AM 19.9 °F - 10.9 °F 68% 30.58 in 10.0 mi Calm Calm - N/A   Partly Cloudy
5:51 AM 19.0 °F - 10.9 °F 71% 30.57 in 10.0 mi Calm Calm - N/A   Partly Cloudy
6:51 AM 19.0 °F - 12.0 °F 74% 30.57 in 10.0 mi Calm Calm - N/A   Partly Cloudy
7:51 AM 23.0 °F - 15.1 °F 72% 30.58 in 10.0 mi Calm Calm - N/A   Scattered Clouds
8:51 AM 28.9 °F 21.9 °F 9.0 °F 43% 30.60 in 10.0 mi ESE 6.9 mph - N/A   Scattered Clouds
9:51 AM 32.0 °F 26.4 °F 7.0 °F 35% 30.60 in 10.0 mi SSE 5.8 mph - N/A   Scattered Clouds
10:51 AM 35.1 °F - 6.1 °F 30% 30.58 in 10.0 mi Calm Calm - N/A   Mostly Cloudy
11:51 AM 37.0 °F - 5.0 °F 26% 30.56 in 10.0 mi Calm Calm - N/A   Scattered Clouds
12:51 PM 39.9 °F 37.8 °F 6.1 °F 25% 30.52 in 10.0 mi Variable 3.5 mph - N/A   Mostly Cloudy
1:51 PM 42.1 °F 39.2 °F 5.0 °F 22% 30.48 in 10.0 mi SSW 4.6 mph - N/A   Scattered Clouds
2:51 PM 42.1 °F 40.2 °F 5.0 °F 22% 30.47 in 10.0 mi Variable 3.5 mph - N/A   Mostly Cloudy
3:51 PM 42.1 °F 40.2 °F 5.0 °F 22% 30.47 in 10.0 mi South 3.5 mph - N/A   Mostly Cloudy
4:51 PM 39.9 °F 36.7 °F 5.0 °F 23% 30.46 in 10.0 mi South 4.6 mph - N/A   Mostly Cloudy
5:51 PM 36.0 °F 33.3 °F 8.1 °F 31% 30.46 in 10.0 mi SSE 3.5 mph - N/A   Mostly Cloudy
6:51 PM 34.0 °F 31.0 °F 7.0 °F 32% 30.45 in 10.0 mi SE 3.5 mph - N/A   Scattered Clouds
7:51 PM 37.0 °F 33.3 °F 8.1 °F 30% 30.46 in 10.0 mi South 4.6 mph - N/A   Mostly Cloudy
8:51 PM 36.0 °F 33.3 °F 9.0 °F 33% 30.44 in 10.0 mi SSE 3.5 mph - N/A   Overcast
9:51 PM 36.0 °F 33.3 °F 10.9 °F 36% 30.43 in 10.0 mi South 3.5 mph - N/A   Overcast
10:51 PM 37.0 °F - 9.0 °F 31% 30.40 in 10.0 mi Calm Calm - N/A   Overcast
11:51 PM 37.0 °F - 12.0 °F 36% 30.40 in 10.0 mi Calm Calm - N/A   Overcast